This demonstration page uses our WeatherBlox Daily Observations layout. Learn more.

Left ArrowRight Arrow

39.51506, -84.39828

Hourly Observations for April 22, 2020

Temp ( °F °C ) Dew Point ( °F °C ) Humidity (%) Winds ( mph kmh ) Pressure ( in mb ) Visibility ( mi km ) Precip ( " mm )
12:15 am 00:15 Clear 34 1.1 26 -3.1 74 74 N N/A 30.07 1018 N/A N/A
12:35 am 00:35 Clear 33 0.8 25 -3.7 72 72 N N/A 30.08 1019 N/A N/A
12:55 am 00:55 Clear 33 0.5 25 -3.9 73 73 N N/A 30.09 1019 N/A N/A
1:15 am 01:15 Clear 33 0.7 26 -3.2 75 75 N 3 6 30.09 1019 N/A N/A
1:35 am 01:35 Clear 32 -0.2 27 -3 82 82 N N/A 30.10 1019 N/A N/A
1:55 am 01:55 undefined 31 -0.8 26 -3.1 85 85 N N/A 30.10 1019 N/A N/A
2:15 am 02:15 undefined 30 -1.2 26 -3.5 85 85 N 3 6 30.10 1019 N/A N/A
2:35 am 02:35 undefined 30 -0.9 26 -3.1 85 85 N 3 6 30.10 1019 N/A N/A
2:55 am 02:55 Clear 31 -0.8 26 -3.2 84 84 N 3 6 30.10 1019 N/A N/A
3:15 am 03:15 undefined 30 -1.1 26 -3.4 85 85 N 5 7 30.10 1019 N/A N/A
3:35 am 03:35 undefined 30 -1.3 26 -3.3 86 86 N 5 7 30.10 1019 N/A N/A
3:55 am 03:55 undefined 30 -1 26 -3.3 85 85 N N/A 30.10 1019 N/A N/A
4:15 am 04:15 undefined 30 -1.3 26 -3.5 85 85 N 5 7 30.10 1019 N/A N/A
4:35 am 04:35 undefined 29 -1.7 25 -3.8 86 86 N 5 7 30.11 1020 N/A N/A
4:55 am 04:55 Clear 30 -1.1 25 -3.9 82 82 N N/A 30.12 1020 N/A N/A
5:15 am 05:15 undefined 29 -1.8 25 -3.8 86 86 N N/A 30.12 1020 N/A N/A
5:35 am 05:35 undefined 29 -1.7 25 -3.7 86 86 N 3 6 30.12 1020 N/A N/A
5:55 am 05:55 undefined 30 -1.3 26 -3.4 86 86 N N/A 30.10 1019 N/A N/A
6:15 am 06:15 undefined 29 -1.9 26 -3.5 89 89 N 6 9 30.12 1020 N/A N/A
6:35 am 06:35 undefined 29 -1.6 26 -3.4 88 88 N 3 6 30.13 1020 N/A N/A
6:55 am 06:55 undefined 28 -2 25 -3.8 88 88 N N/A 30.14 1021 N/A N/A
7:15 am 07:15 undefined 29 -1.7 27 -3 91 91 N N/A 30.15 1021 N/A N/A
7:35 am 07:35 undefined 30 -1.2 27 -3 88 88 N N/A 30.15 1021 N/A N/A
7:55 am 07:55 undefined 31 -0.3 28 -2.4 86 86 N N/A 30.15 1021 N/A N/A
8:15 am 08:15 undefined 34 1.2 30 -1.1 85 85 N N/A 30.15 1021 N/A N/A
8:35 am 08:35 Sunny 36 2.2 30 -1.2 78 78 N N/A 30.15 1021 N/A N/A
8:55 am 08:55 Partly Cloudy 38 3.4 29 -1.9 69 69 N N/A 30.16 1021 N/A N/A
9:15 am 09:15 Partly Cloudy 41 4.8 28 -2 62 62 N N/A 30.14 1021 N/A N/A
9:35 am 09:35 Sunny 44 6.5 23 -4.8 45 45 SE 6 9 30.15 1021 N/A N/A
9:55 am 09:55 Sunny 45 7.4 23 -4.8 42 42 SE 7 11 30.15 1021 N/A N/A
10:15 am 10:15 Sunny 47 8.2 24 -4.3 41 41 ESE 8 13 30.13 1020 N/A N/A
10:35 am 10:35 Sunny 49 9.4 26 -3.3 41 41 SSE 5 7 30.11 1020 N/A N/A
10:55 am 10:55 Sunny 49 9.7 24 -4.3 37 37 ESE 5 7 30.11 1020 N/A N/A
11:15 am 11:15 Sunny 51 10.5 25 -3.9 36 36 SE 8 13 30.09 1019 N/A N/A
11:35 am 11:35 Sunny 53 11.6 25 -3.9 34 34 S 6 9 30.07 1018 N/A N/A
11:55 am 11:55 Sunny 54 12.1 26 -3.3 34 34 S 6 9 30.06 1018 N/A N/A
12:15 pm 12:15 Partly Cloudy 54 12 24 -4.4 32 32 SSW 6 9 30.07 1018 N/A N/A
12:35 pm 12:35 Mostly Cloudy 54 12.4 27 -3 34 34 SW 7 11 30.07 1018 N/A N/A
12:55 pm 12:55 Partly Cloudy 56 13.3 26 -3.3 32 32 S 3 6 30.05 1018 N/A N/A
1:15 pm 13:15 Sunny 57 14.1 28 -2.2 33 33 S 6 9 30.04 1017 N/A N/A
1:35 pm 13:35 Sunny 59 15.1 31 -0.8 34 34 S 8 13 30.03 1017 N/A N/A
1:55 pm 13:55 Sunny 60 15.7 31 -0.4 34 34 S 8 13 30.00 1016 N/A N/A
2:15 pm 14:15 Sunny 62 16.8 33 0.4 33 33 SSW 9 15 30.00 1016 N/A N/A
2:35 pm 14:35 Partly Cloudy 61 16.3 32 -0.1 33 33 S 8 13 29.99 1016 N/A N/A
2:55 pm 14:55 Sunny 63 17.3 33 0.6 33 33 S 10 17 29.98 1015 N/A N/A
3:15 pm 15:15 Sunny 66 18.8 36 2.3 33 33 SW 12 19 29.97 1015 N/A N/A
3:35 pm 15:35 Sunny 67 19.4 37 2.8 33 33 S 15 24 29.96 1014 N/A N/A
3:55 pm 15:55 Sunny 67 19.7 37 3 33 33 S 12 19 29.94 1014 N/A N/A
4:15 pm 16:15 Sunny 68 20 36 2.1 31 31 SSW 14 22 29.92 1013 N/A N/A
4:35 pm 16:35 Sunny 69 20.5 37 2.7 31 31 SSW 16 26 29.90 1013 N/A N/A
4:55 pm 16:55 Sunny 69 20.6 38 3.1 32 32 SSW 13 20 29.90 1013 N/A N/A
5:15 pm 17:15 Sunny 69 20.8 38 3.2 31 31 SSW 18 30 29.90 1013 N/A N/A
5:35 pm 17:35 Sunny 69 20.8 37 2.5 30 30 SW 16 26 29.90 1013 N/A N/A
5:55 pm 17:55 Sunny 69 20.8 37 3 31 31 SSW 13 20 29.89 1012 N/A N/A
6:15 pm 18:15 Sunny 69 20.6 38 3.3 32 32 SW 12 19 29.88 1012 N/A N/A
6:35 pm 18:35 Sunny 69 20.4 38 3.3 32 32 SSW 16 26 29.88 1012 N/A N/A
6:55 pm 18:55 Sunny 68 20 38 3.3 33 33 S 14 22 29.87 1012 N/A N/A
7:15 pm 19:15 Sunny 66 19.1 38 3.6 36 36 SSW 10 17 29.88 1012 N/A N/A
7:35 pm 19:35 Sunny 65 18.6 39 4 38 38 SSW 10 17 29.88 1012 N/A N/A
7:55 pm 19:55 Sunny 64 17.8 40 4.3 41 41 S 8 13 29.88 1012 N/A N/A
8:15 pm 20:15 Sunny 63 17.2 39 4 42 42 S 9 15 29.89 1012 N/A N/A
8:35 pm 20:35 Clear 62 16.6 39 3.9 43 43 S 10 17 29.90 1013 N/A N/A
8:55 pm 20:55 Clear 60 15.6 39 4.1 47 47 SSW 7 11 29.92 1013 N/A N/A
9:15 pm 21:15 Clear 60 15.3 39 4.1 47 47 SSW 9 15 29.92 1013 N/A N/A
9:35 pm 21:35 Clear 59 15.2 40 4.4 49 49 SSW 6 9 29.93 1013 N/A N/A
9:55 pm 21:55 Clear 56 13.6 41 5 56 56 SSW 6 9 29.93 1014 N/A N/A
10:15 pm 22:15 Clear 58 14.5 41 5.2 54 54 SSW 7 11 29.92 1013 N/A N/A
10:35 pm 22:35 Clear 57 13.8 43 5.9 59 59 SW 6 9 29.93 1014 N/A N/A
10:55 pm 22:55 Clear 58 14.2 42 5.5 56 56 SW 8 13 29.93 1013 N/A N/A
11:15 pm 23:15 Clear 58 14.2 42 5.5 56 56 SW 6 9 29.93 1013 N/A N/A
11:35 pm 23:35 Clear 56 13.5 42 5.4 58 58 SSW 5 7 29.92 1013 N/A N/A
11:55 pm 23:55 Clear 54 12.2 44 6.6 69 69 SW 5 7 29.91 1013 N/A N/A

Powered by AerisWeather